Tracking 26442 objects as of 6-Dec-2022
HD Live streaming from Space Station
objects crossing your sky now

GB 1

Track GB 1 now!
10-day predictions
GB 1 is classified as:


NORAD ID: 14143
Int'l Code: 1983-056C
Perigee: 396.0 km
Apogee: 1,690.9 km
Inclination: 63.3 °
Period: 105.9 minutes
Semi major axis: 7414 km
RCS: Unknown
Launch date: June 9, 1983
Source: United States (US)
Launch site: AIR FORCE WESTERN TEST RANGE (AFWTR)
aabbcc
Your satellite tracking list
Your tracking list is empty




NASA's NSSDC Master Catalog

Two Line Element Set (TLE):
1 14143U 83056C   22339.80028303  .00005528  00000-0  46875-3 0  9991
2 14143  63.2983 168.1529 0873202 108.9604 260.8056 13.59831291169924
Source of the keplerian elements: McCants